Beatrice, NE

2:38 AM CDT on May 23, 2017 (GMT -0500)
Beatrice Municipal

Weather History for KBIE - January, 2011

Change the Weather History Date:

Friday, January 14, 2011

  Actual Average Record
Temperature  
Mean Temperature 18 °F -  
Max Temperature 30 °F 34 °F 59 °F (2006)
Min Temperature 5 °F 12 °F -10 °F (1972)
Degree Days  
Heating Degree Days 48    
Moisture  
Dew Point 14 °F    
Average Humidity 83    
Maximum Humidity 91    
Minimum Humidity 70    
Precipitation  
Precipitation 0.00 in - - ()
Sea Level Pressure  
Sea Level Pressure 30.18 in    
Wind  
Wind Speed 2 mph (South)    
Max Wind Speed 13 mph    
Max Gust Speed 17 mph    
Visibility 8 miles    
Events      
Averages and records for this station are not official NWS values.
T = Trace of Precipitation, MM = Missing Value Source: NWS Daily Summary

Daily Weather History Graph

Daily Weather History Graph

Search for Another Location

Airport or City:

Trip Planner

Search our weather history database for the weather conditions in past years. The results will help you decide how hot, cold, wet, or windy it might be!

Date:

Astronomy

Jan. 14, 2011 Rise Set
Actual Time 7:48 AM CST 5:24 PM CST
Civil Twilight 7:18 AM CST 5:54 PM CST
Nautical Twilight 6:44 AM CST 6:27 PM CST
Astronomical Twilight 6:12 AM CST 7:00 PM CST
Moon 12:42 PM CST (1/14) 2:49 AM CST (1/14)
Length of Visible Light 10h 35m
Length of Day
9h 35m
Waxing Gibbous, 71% of the Moon is Illuminated
Jan 14
Waxing Gibbous
Jan 19
Full
Jan 26
Last Quarter
Feb 2
New
Feb 11
First Quarter

Hourly Weather History & Observations

Time (CST) Temp. Windchill Dew Point Humidity Pressure Visibility Wind Dir Wind Speed Gust Speed Precip Events Conditions
12:10 AM 7.3 °F - 4.5 °F 88% 30.20 in 10.0 mi Calm Calm - N/A   Clear
12:30 AM 7.9 °F - 5.0 °F 88% 30.20 in 10.0 mi Calm Calm - N/A   Clear
12:50 AM 6.6 °F - 3.7 °F 88% 30.19 in 10.0 mi Calm Calm - N/A   Clear
1:10 AM 6.4 °F - 3.9 °F 89% 30.18 in 10.0 mi Calm Calm - N/A   Clear
1:30 AM 6.8 °F - 3.9 °F 88% 30.19 in 10.0 mi Calm Calm - N/A   Clear
1:50 AM 7.5 °F 0.8 °F 5.4 °F 91% 30.19 in 7.0 mi SSW 3.5 mph - N/A   Clear
2:10 AM 6.1 °F - 3.6 °F 89% 30.19 in 7.0 mi Calm Calm - N/A   Clear
2:30 AM 7.3 °F - 4.8 °F 89% 30.20 in 7.0 mi Calm Calm - N/A   Clear
2:50 AM 5.9 °F - 2.7 °F 87% 30.21 in 10.0 mi Calm Calm - N/A   Clear
3:10 AM 6.4 °F - 3.6 °F 88% 30.20 in 7.0 mi Calm Calm - N/A   Clear
3:30 AM 5.4 °F - 1.9 °F 86% 30.18 in 10.0 mi Calm Calm - N/A   Clear
3:50 AM 7.5 °F - 5.2 °F 90% 30.18 in 7.0 mi Calm Calm - N/A   Clear
4:10 AM 7.7 °F - 5.4 °F 90% 30.19 in 7.0 mi Calm Calm - N/A   Clear
4:30 AM 7.3 °F - 4.8 °F 89% 30.19 in 7.0 mi Calm Calm - N/A   Clear
4:50 AM 7.3 °F - 5.0 °F 90% 30.18 in 7.0 mi Calm Calm - N/A   Clear
5:10 AM 8.6 °F - 6.4 °F 91% 30.19 in 7.0 mi Calm Calm - N/A   Clear
5:30 AM 9.7 °F 1.4 °F 7.5 °F 91% 30.17 in 7.0 mi NE 4.6 mph - N/A   Scattered Clouds
5:50 AM 10.4 °F 4.0 °F 8.1 °F 90% 30.17 in 7.0 mi ENE 3.5 mph - N/A   Scattered Clouds
6:10 AM 11.5 °F - 9.1 °F 90% 30.18 in 7.0 mi Calm Calm - N/A   Scattered Clouds
6:30 AM 13.8 °F - 11.5 °F 90% 30.19 in 7.0 mi Calm Calm - N/A   Scattered Clouds
6:50 AM 15.6 °F 10.0 °F 13.1 °F 90% 30.20 in 7.0 mi North 3.5 mph - N/A   Mostly Cloudy
7:10 AM 16.7 °F - 13.8 °F 88% 30.21 in 7.0 mi Calm Calm - N/A   Overcast
7:30 AM 16.2 °F - 12.6 °F 86% 30.21 in 7.0 mi Calm Calm - N/A   Overcast
7:50 AM 17.6 °F - 14.0 °F 86% 30.20 in 7.0 mi Calm Calm - N/A   Overcast
8:10 AM 18.1 °F 10.0 °F 14.5 °F 86% 30.20 in 7.0 mi East 5.8 mph - N/A   Overcast
8:30 AM 18.5 °F - 14.9 °F 86% 30.22 in 7.0 mi Calm Calm - N/A   Overcast
8:50 AM 19.0 °F 13.9 °F 14.9 °F 84% 30.21 in 7.0 mi East 3.5 mph - N/A   Overcast
9:10 AM 19.4 °F 12.8 °F 15.1 °F 83% 30.22 in 7.0 mi East 4.6 mph - N/A   Overcast
9:30 AM 20.1 °F - 14.9 °F 80% 30.23 in 7.0 mi Calm Calm - N/A   Overcast
9:50 AM 20.7 °F - 15.3 °F 80% 30.24 in 10.0 mi Calm Calm - N/A   Overcast
10:10 AM 21.2 °F 13.6 °F 15.3 °F 78% 30.24 in 10.0 mi ESE 5.8 mph - N/A   Overcast
10:30 AM 21.7 °F 14.3 °F 15.4 °F 77% 30.24 in 10.0 mi SE 5.8 mph - N/A   Overcast
10:50 AM 22.5 °F 14.1 °F 15.8 °F 76% 30.23 in 10.0 mi ESE 6.9 mph - N/A   Overcast
11:10 AM 23.0 °F 13.9 °F 15.8 °F 74% 30.22 in 10.0 mi ESE 8.1 mph - N/A   Overcast
11:30 AM 23.7 °F 15.6 °F 16.0 °F 72% 30.20 in 10.0 mi SE 6.9 mph - N/A   Overcast
11:50 AM 24.8 °F 16.9 °F 16.7 °F 71% 30.19 in 10.0 mi SE 6.9 mph - N/A   Overcast
12:10 PM 26.1 °F 18.4 °F 17.8 °F 71% 30.20 in 10.0 mi SSE 6.9 mph - N/A   Overcast
12:30 PM 26.6 °F 20.0 °F 18.5 °F 71% 30.18 in 10.0 mi South 5.8 mph - N/A   Overcast
12:50 PM 27.5 °F 17.4 °F 18.9 °F 70% 30.15 in 10.0 mi SSE 11.5 mph - N/A   Overcast
1:10 PM 28.4 °F 19.7 °F 19.8 °F 70% 30.13 in 10.0 mi SSE 9.2 mph 16.1 mph N/A   Scattered Clouds
1:30 PM 29.3 °F 19.1 °F 21.2 °F 72% 30.17 in 10.0 mi West 12.7 mph 17.3 mph N/A   Scattered Clouds
1:50 PM 29.7 °F 20.7 °F 22.1 °F 73% 30.16 in 10.0 mi WSW 10.4 mph - N/A   Mostly Cloudy
2:10 PM 28.9 °F 19.8 °F 22.3 °F 76% 30.14 in 7.0 mi SSW 10.4 mph - N/A   Overcast
2:30 PM 28.6 °F 21.5 °F 22.6 °F 78% 30.15 in 7.0 mi WSW 6.9 mph - N/A   Overcast
2:50 PM 28.8 °F 20.2 °F 22.6 °F 78% 30.13 in 7.0 mi SSW 9.2 mph - N/A   Overcast
3:10 PM 29.3 °F 22.3 °F 23.2 °F 78% 30.13 in 7.0 mi South 6.9 mph - N/A   Overcast
3:30 PM 30.0 °F 23.2 °F 23.5 °F 77% 30.13 in 7.0 mi South 6.9 mph - N/A   Overcast
3:50 PM 30.2 °F 24.3 °F 23.4 °F 76% 30.13 in 7.0 mi SSW 5.8 mph - N/A   Scattered Clouds
4:10 PM 30.2 °F 24.3 °F 23.5 °F 76% 30.14 in 7.0 mi SSW 5.8 mph - N/A   Scattered Clouds
4:30 PM 29.7 °F 23.7 °F 23.5 °F 78% 30.13 in 7.0 mi SW 5.8 mph - N/A   Clear
4:50 PM 28.6 °F - 23.0 °F 80% 30.13 in 7.0 mi Calm Calm - N/A   Clear
5:10 PM 27.7 °F 22.4 °F 22.5 °F 81% 30.13 in 7.0 mi SSW 4.6 mph - N/A   Clear
5:30 PM 25.0 °F 20.7 °F 20.7 °F 84% 30.14 in 7.0 mi SSW 3.5 mph - N/A   Clear
5:50 PM 24.4 °F - 20.3 °F 84% 30.14 in 7.0 mi Calm Calm - N/A   Clear
6:10 PM 23.4 °F - 20.5 °F 89% 30.14 in 7.0 mi Calm Calm - N/A   Clear
6:30 PM 21.7 °F 17.0 °F 18.3 °F 87% 30.14 in 7.0 mi SW 3.5 mph - N/A   Clear
6:50 PM 20.8 °F 14.4 °F 18.1 °F 89% 30.15 in 7.0 mi West 4.6 mph - N/A   Clear
7:10 PM 18.1 °F - 15.8 °F 91% 30.15 in 5.0 mi Calm Calm - N/A   Clear
7:30 PM 22.5 °F 17.8 °F 20.7 °F 93% 30.14 in 5.0 mi SSW 3.5 mph - N/A   Clear
7:50 PM 22.6 °F 18.0 °F 20.3 °F 91% 30.14 in 5.0 mi SSW 3.5 mph - N/A   Clear
8:10 PM 19.9 °F 14.9 °F 18.5 °F 94% 30.14 in 4.0 mi SSW 3.5 mph - N/A   Clear
8:30 PM 19.0 °F - 17.6 °F 94% 30.14 in 5.0 mi Calm Calm - N/A   Clear
8:50 PM 20.3 °F 15.4 °F 19.0 °F 95% 30.14 in 5.0 mi SW 3.5 mph - N/A   Clear
9:10 PM 18.7 °F - 17.6 °F 96% 30.15 in 4.0 mi Calm Calm - N/A   Clear
9:30 PM 17.4 °F - 15.8 °F 93% 30.15 in 4.0 mi Calm Calm - N/A   Clear
9:50 PM 18.0 °F 12.7 °F 15.3 °F 89% 30.16 in 5.0 mi SW 3.5 mph - N/A   Clear
10:10 PM 18.5 °F 13.3 °F 16.7 °F 93% 30.15 in 4.0 mi SSW 3.5 mph - N/A   Clear
10:30 PM 18.3 °F - 16.5 °F 93% 30.15 in 5.0 mi Calm Calm - N/A   Clear
10:50 PM 17.8 °F 12.5 °F 16.0 °F 93% 30.15 in 4.0 mi WSW 3.5 mph - N/A   Clear
11:10 PM 17.6 °F - 16.2 °F 94% 30.15 in 0.8 mi Calm Calm - N/A   Mist
11:30 PM 19.0 °F 13.9 °F 18.1 °F 96% 30.15 in 2.5 mi NW 3.5 mph - N/A   Clear
11:50 PM 17.1 °F - 16.0 °F 96% 30.15 in 3.0 mi Calm Calm - N/A   Clear